SWA2016 PHKO-KSMF

Flight info

Callsign SWA2016
Flight time N/A
Altitude 37000
Route V5 MYNAH V11 UPP CLUTS R465 CINNY PYE
Aircraft B38M/M-SADE2E3GHIJ4J7P2RWZ/LB1D1

Departure

Time 2026-05-06 20:39
Airport Ellison Onizuka Kona International Airport at Keāhole (PHKO)

Arrival

Time N/A
Airport Sacramento International Airport (KSMF)
Time Latitude Longitude Altitude Speed Heading
2026-05-06 20:27 19.73760 -156.04196 49 ft 0 kts 135°
2026-05-06 20:33 19.73764 -156.04200 48 ft 3 kts 135°
2026-05-06 20:33 19.73771 -156.04208 44 ft 2 kts 139°
2026-05-06 20:34 19.73785 -156.04222 46 ft 3 kts 135°
2026-05-06 20:34 19.73792 -156.04229 46 ft 0 kts 135°
2026-05-06 20:35 19.73794 -156.04224 46 ft 1 kts 65°
2026-05-06 20:36 19.73810 -156.04238 45 ft 7 kts 307°
2026-05-06 20:36 19.73874 -156.04301 45 ft 19 kts 342°
2026-05-06 20:36 19.74046 -156.04297 42 ft 30 kts
2026-05-06 20:36 19.74263 -156.04276 47 ft 32 kts
2026-05-06 20:37 19.74478 -156.04256 52 ft 30 kts
2026-05-06 20:37 19.74689 -156.04237 50 ft 30 kts
2026-05-06 20:37 19.74896 -156.04217 52 ft 30 kts
2026-05-06 20:37 19.75108 -156.04199 50 ft 32 kts
2026-05-06 20:38 19.75315 -156.04191 48 ft 25 kts 340°
2026-05-06 20:38 19.75395 -156.04333 45 ft 25 kts 261°
2026-05-06 20:38 19.75270 -156.04443 46 ft 34 kts 184°
2026-05-06 20:38 19.74796 -156.04485 50 ft 102 kts 185°
2026-05-06 20:39 19.73889 -156.04565 49 ft 157 kts 184°
2026-05-06 20:39 19.72719 -156.04675 362 ft 178 kts 184°
2026-05-06 20:39 19.71520 -156.04727 1153 ft 173 kts 186°
2026-05-06 20:39 19.70333 -156.05204 1533 ft 199 kts 221°
2026-05-06 20:40 19.69615 -156.06528 1955 ft 224 kts 261°
2026-05-06 20:40 19.69908 -156.08161 2702 ft 227 kts 302°
2026-05-06 20:40 19.70749 -156.09611 3579 ft 235 kts 296°
2026-05-06 20:40 19.71467 -156.11175 4532 ft 237 kts 296°
2026-05-06 20:41 19.72202 -156.12758 5391 ft 242 kts 296°
2026-05-06 20:41 19.72953 -156.14366 6234 ft 248 kts 296°
2026-05-06 20:41 19.73759 -156.16050 6796 ft 264 kts 301°
2026-05-06 20:41 19.75086 -156.17404 7514 ft 268 kts 335°
2026-05-06 20:42 19.76899 -156.17827 8354 ft 272 kts
2026-05-06 20:42 19.78756 -156.17418 9142 ft 275 kts 25°
2026-05-06 20:42 19.80321 -156.16251 9912 ft 279 kts 42°
2026-05-06 20:42 19.81872 -156.14943 10443 ft 294 kts 36°
2026-05-06 20:43 19.83587 -156.13632 10761 ft 314 kts 36°
2026-05-06 20:43 19.85416 -156.12223 11064 ft 335 kts 36°
2026-05-06 20:43 19.87347 -156.10725 11379 ft 352 kts 36°
2026-05-06 20:43 19.89356 -156.09155 11828 ft 363 kts 36°
2026-05-06 20:44 19.91382 -156.07550 12569 ft 365 kts 37°
2026-05-06 20:44 19.93420 -156.05919 13212 ft 369 kts 37°
2026-05-06 20:44 19.95476 -156.04263 13864 ft 372 kts 37°
2026-05-06 20:44 19.97544 -156.02593 14471 ft 376 kts 37°
2026-05-06 20:45 19.99604 -156.00926 15077 ft 378 kts 37°
2026-05-06 20:45 20.01708 -155.99223 15653 ft 382 kts 37°
2026-05-06 20:45 20.03830 -155.97504 16230 ft 385 kts 37°
2026-05-06 20:45 20.05967 -155.95771 16786 ft 388 kts 37°
2026-05-06 20:46 20.08122 -155.94024 17330 ft 391 kts 37°
2026-05-06 20:46 20.10295 -155.92260 17858 ft 394 kts 37°
2026-05-06 20:46 20.12479 -155.90485 18374 ft 397 kts 37°
2026-05-06 20:46 20.14686 -155.88692 18868 ft 400 kts 37°
2026-05-06 20:47 20.16906 -155.86887 19355 ft 404 kts 37°
2026-05-06 20:47 20.19157 -155.85069 19821 ft 408 kts 35°
2026-05-06 20:47 20.21684 -155.83697 20287 ft 410 kts 21°
2026-05-06 20:47 20.24344 -155.82573 20762 ft 413 kts 22°
2026-05-06 20:48 20.27016 -155.81443 21247 ft 414 kts 21°
2026-05-06 20:48 20.29706 -155.80317 21694 ft 417 kts 21°
2026-05-06 20:48 20.32417 -155.79187 22119 ft 419 kts 21°
2026-05-06 20:48 20.35146 -155.78050 22534 ft 422 kts 21°
2026-05-06 20:49 20.37883 -155.76910 22941 ft 424 kts 21°
2026-05-06 20:49 20.40645 -155.75760 23325 ft 427 kts 21°
2026-05-06 20:49 20.43418 -155.74604 23725 ft 429 kts 21°
2026-05-06 20:49 20.46212 -155.73439 24100 ft 432 kts 21°
2026-05-06 20:50 20.49017 -155.72270 24469 ft 434 kts 21°
2026-05-06 20:50 20.51839 -155.71092 24832 ft 436 kts 21°
2026-05-06 20:50 20.54669 -155.69911 25172 ft 439 kts 21°
2026-05-06 20:50 20.57523 -155.68719 25514 ft 441 kts 21°
2026-05-06 20:51 20.60385 -155.67523 25852 ft 443 kts 21°
2026-05-06 20:51 20.63265 -155.66320 26184 ft 445 kts 21°
2026-05-06 20:51 20.66156 -155.65111 26494 ft 447 kts 21°
2026-05-06 20:51 20.69061 -155.63896 26809 ft 449 kts 21°
2026-05-06 20:52 20.71979 -155.62675 27114 ft 452 kts 21°
2026-05-06 20:52 20.74910 -155.61448 27410 ft 454 kts 21°
2026-05-06 20:52 20.77856 -155.60215 27706 ft 455 kts 21°
2026-05-06 20:52 20.80808 -155.58978 28044 ft 456 kts 21°
2026-05-06 20:53 20.83718 -155.57758 28411 ft 455 kts 21°
2026-05-06 20:53 20.86665 -155.56523 28796 ft 455 kts 21°
2026-05-06 20:53 20.89608 -155.55288 29169 ft 454 kts 21°
2026-05-06 20:53 20.92546 -155.54055 29536 ft 453 kts 21°
2026-05-06 20:54 20.95477 -155.52824 29899 ft 452 kts 21°
2026-05-06 20:54 20.98406 -155.51595 30248 ft 452 kts 21°
2026-05-06 20:54 21.01326 -155.50367 30599 ft 451 kts 21°
2026-05-06 20:54 21.04247 -155.49140 30939 ft 450 kts 21°
2026-05-06 20:55 21.07156 -155.47916 31270 ft 449 kts 21°
2026-05-06 20:55 21.10068 -155.46691 31593 ft 449 kts 21°
2026-05-06 20:55 21.12972 -155.45469 31908 ft 448 kts 21°
2026-05-06 20:55 21.15870 -155.44249 32212 ft 447 kts 21°
2026-05-06 20:56 21.18764 -155.43030 32512 ft 447 kts 21°
2026-05-06 20:56 21.21655 -155.41811 32809 ft 446 kts 21°
2026-05-06 20:56 21.24540 -155.40595 33101 ft 445 kts 21°
2026-05-06 20:56 21.27423 -155.39379 33381 ft 445 kts 21°
2026-05-06 20:57 21.30301 -155.38165 33653 ft 444 kts 21°
2026-05-06 20:57 21.33174 -155.36952 33920 ft 444 kts 21°
2026-05-06 20:57 21.36049 -155.35738 34183 ft 443 kts 21°
2026-05-06 20:57 21.38915 -155.34527 34444 ft 443 kts 21°
2026-05-06 20:58 21.40810 -155.33726 34606 ft 442 kts 21°
2026-05-06 20:58 21.43670 -155.32517 34842 ft 442 kts 21°
2026-05-06 20:58 21.47457 -155.30915 35143 ft 441 kts 21°
2026-05-06 20:58 21.50314 -155.29705 35366 ft 441 kts 21°
2026-05-06 20:59 21.52244 -155.28889 35514 ft 441 kts 21°
2026-05-06 20:59 21.55094 -155.27682 35727 ft 440 kts 21°
2026-05-06 20:59 21.58863 -155.26085 35991 ft 439 kts 21°
2026-05-06 20:59 21.61702 -155.24881 36163 ft 439 kts 21°
2026-05-06 21:00 21.63623 -155.24067 36277 ft 439 kts 21°
2026-05-06 21:00 21.66463 -155.22862 36440 ft 439 kts 21°
2026-05-06 21:00 21.69305 -155.21656 36593 ft 439 kts 21°
2026-05-06 21:00 21.72141 -155.20452 36742 ft 439 kts 21°
2026-05-06 21:01 21.74985 -155.19244 36895 ft 439 kts 21°
2026-05-06 21:01 21.77826 -155.18037 37008 ft 439 kts 21°
2026-05-06 21:01 21.80670 -155.16827 36999 ft 439 kts 21°
2026-05-06 21:02 21.86338 -155.14417 37004 ft 438 kts 21°
2026-05-06 21:02 21.91971 -155.12018 37000 ft 438 kts 21°
2026-05-06 21:03 21.97638 -155.09602 37000 ft 438 kts 21°
2026-05-06 21:03 22.03304 -155.07187 36996 ft 438 kts 21°
2026-05-06 21:04 22.08969 -155.04769 36999 ft 438 kts 21°
2026-05-06 21:04 22.14637 -155.02346 37004 ft 438 kts 21°
2026-05-06 21:05 22.20308 -154.99922 36998 ft 438 kts 21°
2026-05-06 21:05 22.25979 -154.97496 36998 ft 438 kts 21°
2026-05-06 21:06 22.31644 -154.95068 37004 ft 438 kts 21°
2026-05-06 21:06 22.37312 -154.92638 37000 ft 438 kts 21°
2026-05-06 21:07 22.42979 -154.90206 37001 ft 438 kts 21°
2026-05-06 21:07 22.48648 -154.87772 37003 ft 438 kts 21°
2026-05-06 21:08 22.54316 -154.85335 36999 ft 438 kts 21°
2026-05-06 21:08 22.59981 -154.82899 37000 ft 438 kts 21°
2026-05-06 21:09 22.65656 -154.80454 36998 ft 439 kts 21°
2026-05-06 21:09 22.71323 -154.78012 37002 ft 439 kts 21°
2026-05-06 21:10 22.77000 -154.75565 36993 ft 439 kts 21°
2026-05-06 21:10 22.82667 -154.73117 37003 ft 439 kts 21°
2026-05-06 21:11 22.88334 -154.70668 36998 ft 439 kts 21°
2026-05-06 21:11 22.94002 -154.68217 36996 ft 439 kts 21°
2026-05-06 21:12 22.99439 -154.65375 36974 ft 436 kts 40°
2026-05-06 21:12 23.01533 -154.63020 37007 ft 434 kts 54°
2026-05-06 21:12 23.03293 -154.60342 36988 ft 438 kts 54°
2026-05-06 21:13 23.06754 -154.54887 37005 ft 439 kts 56°
2026-05-06 21:13 23.10145 -154.49374 36999 ft 439 kts 56°
2026-05-06 21:14 23.13509 -154.43849 37001 ft 439 kts 56°
2026-05-06 21:14 23.16871 -154.38318 37001 ft 439 kts 56°
2026-05-06 21:15 23.20232 -154.32783 36999 ft 438 kts 56°
2026-05-06 21:15 23.23591 -154.27247 37000 ft 439 kts 56°
2026-05-06 21:16 23.26948 -154.21707 37001 ft 439 kts 57°
2026-05-06 21:16 23.30303 -154.16165 37000 ft 439 kts 57°
2026-05-06 21:17 23.33656 -154.10619 37000 ft 439 kts 57°
2026-05-06 21:17 23.37006 -154.05071 37000 ft 439 kts 57°
2026-05-06 21:18 23.40358 -153.99516 36998 ft 439 kts 57°
2026-05-06 21:18 23.43707 -153.93960 37000 ft 439 kts 57°
2026-05-06 21:19 23.47052 -153.88404 37001 ft 439 kts 57°
2026-05-06 21:19 23.50397 -153.82842 37000 ft 439 kts 57°
2026-05-06 21:20 23.53741 -153.77274 37000 ft 439 kts 57°
2026-05-06 21:20 23.57082 -153.71707 37000 ft 439 kts 57°
2026-05-06 21:21 23.60420 -153.66138 37002 ft 439 kts 57°
2026-05-06 21:21 23.63758 -153.60563 36999 ft 439 kts 57°
2026-05-06 21:22 23.67091 -153.54990 37001 ft 439 kts 57°
2026-05-06 21:22 23.70423 -153.49411 37001 ft 439 kts 57°
2026-05-06 21:23 23.73757 -153.43825 37000 ft 439 kts 57°
2026-05-06 21:23 23.77088 -153.38238 37001 ft 439 kts 57°
2026-05-06 21:24 23.80428 -153.32660 37000 ft 439 kts 57°
2026-05-06 21:24 23.83770 -153.27077 37000 ft 439 kts 57°
2026-05-06 21:25 23.87086 -153.21530 36998 ft 439 kts 57°
2026-05-06 21:25 23.90424 -153.15939 37000 ft 439 kts 57°
2026-05-06 21:26 23.93758 -153.10350 37002 ft 439 kts 57°
2026-05-06 21:26 23.97091 -153.04756 37000 ft 439 kts 57°
2026-05-06 21:27 24.00422 -152.99158 36996 ft 439 kts 57°
2026-05-06 21:27 24.03754 -152.93554 37000 ft 439 kts 57°
2026-05-06 21:28 24.07079 -152.87954 36999 ft 439 kts 57°
2026-05-06 21:28 24.10406 -152.82345 37000 ft 439 kts 57°
2026-05-06 21:29 24.13729 -152.76737 37000 ft 439 kts 57°
2026-05-06 21:29 24.17052 -152.71122 37000 ft 439 kts 57°
2026-05-06 21:30 24.20369 -152.65509 37001 ft 439 kts 57°
2026-05-06 21:30 24.23688 -152.59888 36999 ft 439 kts 57°
2026-05-06 21:31 24.27004 -152.54266 36999 ft 439 kts 57°
2026-05-06 21:31 24.30319 -152.48638 37001 ft 439 kts 57°
2026-05-06 21:32 24.33631 -152.43009 37000 ft 439 kts 57°
2026-05-06 21:32 24.38571 -152.34601 37000 ft 439 kts 57°
2026-05-06 21:33 24.41880 -152.28961 37000 ft 440 kts 57°
2026-05-06 21:33 24.45184 -152.23324 36998 ft 439 kts 57°
2026-05-06 21:34 24.48487 -152.17681 37000 ft 439 kts 57°
2026-05-06 21:34 24.51790 -152.12031 37000 ft 440 kts 57°
2026-05-06 21:35 24.55087 -152.06387 37001 ft 439 kts 57°
2026-05-06 21:35 24.58385 -152.00732 37000 ft 439 kts 57°
2026-05-06 21:36 24.61681 -151.95076 37000 ft 439 kts 57°
2026-05-06 21:36 24.64973 -151.89419 36999 ft 439 kts 57°
2026-05-06 21:37 24.68265 -151.83755 37001 ft 440 kts 57°
2026-05-06 21:37 24.71553 -151.78092 37000 ft 439 kts 57°
2026-05-06 21:38 24.74841 -151.72421 37000 ft 439 kts 57°
2026-05-06 21:38 24.78104 -151.66789 36997 ft 439 kts 57°
2026-05-06 21:39 24.81387 -151.61114 37000 ft 440 kts 57°
2026-05-06 21:39 24.84666 -151.55440 36999 ft 439 kts 57°
2026-05-06 21:40 24.87946 -151.49759 37001 ft 440 kts 57°
2026-05-06 21:40 24.91222 -151.44073 37000 ft 440 kts 57°
2026-05-06 21:41 24.94498 -151.38386 37000 ft 440 kts 58°
2026-05-06 21:41 24.97772 -151.32692 36999 ft 439 kts 58°
2026-05-06 21:42 25.01043 -151.26998 37003 ft 440 kts 58°
2026-05-06 21:42 25.04311 -151.21303 37000 ft 440 kts 58°
2026-05-06 21:43 25.07579 -151.15600 36997 ft 440 kts 58°
2026-05-06 21:43 25.10846 -151.09893 37000 ft 440 kts 58°
2026-05-06 21:44 25.14108 -151.04187 36999 ft 440 kts 58°
2026-05-06 21:44 25.17368 -150.98478 37000 ft 440 kts 58°
2026-05-06 21:45 25.20627 -150.92763 37000 ft 440 kts 58°
2026-05-06 21:45 25.23864 -150.87081 37000 ft 440 kts 58°
2026-05-06 21:46 25.27139 -150.81324 37000 ft 439 kts 58°
2026-05-06 21:46 25.30369 -150.75640 37000 ft 440 kts 58°
2026-05-06 21:47 25.33619 -150.69914 37001 ft 440 kts 58°
2026-05-06 21:47 25.36868 -150.64183 37001 ft 440 kts 58°
2026-05-06 21:48 25.40115 -150.58448 37000 ft 440 kts 58°
2026-05-06 21:48 25.43359 -150.52711 37000 ft 440 kts 58°
2026-05-06 21:49 25.46075 -150.47903 37001 ft 440 kts 58°
2026-05-06 21:49 25.49316 -150.42158 36999 ft 440 kts 58°
2026-05-06 21:50 25.52554 -150.36411 37001 ft 440 kts 58°
2026-05-06 21:50 25.55791 -150.30661 37002 ft 440 kts 58°
2026-05-06 21:51 25.59004 -150.24945 37000 ft 440 kts 58°
2026-05-06 21:51 25.62258 -150.19148 37000 ft 440 kts 58°
2026-05-06 21:52 25.65466 -150.13428 36994 ft 440 kts 58°
2026-05-06 21:52 25.68691 -150.07669 37000 ft 440 kts 58°
2026-05-06 21:53 25.71918 -150.01900 37000 ft 440 kts 58°
2026-05-06 21:53 25.75142 -149.96130 37000 ft 440 kts 58°
2026-05-06 21:54 25.78361 -149.90360 36999 ft 440 kts 58°
2026-05-06 21:54 25.81580 -149.84585 37001 ft 440 kts 58°
2026-05-06 21:55 25.84797 -149.78804 36999 ft 440 kts 58°
2026-05-06 21:55 25.88012 -149.73020 37000 ft 440 kts 58°
2026-05-06 21:56 25.91222 -149.67237 37002 ft 440 kts 58°
2026-05-06 21:56 25.94434 -149.61446 37000 ft 440 kts 58°
2026-05-06 21:57 25.97644 -149.55649 37002 ft 440 kts 58°
2026-05-06 21:57 26.00849 -149.49853 37000 ft 440 kts 58°
2026-05-06 21:58 26.04053 -149.44052 37000 ft 440 kts 58°
2026-05-06 21:58 26.07257 -149.38246 37000 ft 440 kts 58°
2026-05-06 21:59 26.10455 -149.32441 37000 ft 440 kts 58°
2026-05-06 21:59 26.13652 -149.26632 37000 ft 440 kts 58°
2026-05-06 22:00 26.16848 -149.20815 37001 ft 440 kts 58°
2026-05-06 22:00 26.20042 -149.14995 37000 ft 440 kts 58°
2026-05-06 22:01 26.23234 -149.09172 36999 ft 440 kts 58°
2026-05-06 22:01 26.26421 -149.03352 37001 ft 440 kts 58°
2026-05-06 22:02 26.29585 -148.97565 37000 ft 440 kts 58°